Location: Newark
(12.4436°N, 0.6167°W)
Time: 19:39:51
(UTC+00:00)

Vanguard 1 - Pass Details

Date: 19 December 2019
Orbit: 651 x 3833 km, 34.2° (Epoch: 25 January)

Event Time Altitude Azimuth Distance (km) Brightness Sun altitude
Rises 01:09:57 0° 253° (WSW) 5,792 - -70.0°
Reaches altitude 10° 01:13:14 10° 257° (WSW) 5,133 - -69.3°
Maximum altitude 01:29:45 60° 334° (NNW) 3,776 - -65.9°
Exits shadow 01:42:11 34° 38° (NE) 5,124 13.5 -63.2°
Drops below altitude 10° 01:53:13 10° 52° (NE) 6,876 14.4 -60.8°
Sets 01:58:35 0° 56° (NE) 7,758 14.8 -59.6°
